Weather History for Shaw AFB, SC

Change the Weather History Date:

Wednesday, February 13, 2013

  Actual Average Record
Temperature  
Mean Temperature 53 °F -  
Max Temperature 59 °F 57 °F 72 °F (2009)
Min Temperature 47 °F 35 °F 24 °F (2006)
Degree Days  
Heating Degree Days 12    
Growing Degree Days 3 (Base 50)    
Moisture  
Dew Point 47 °F    
Average Humidity 88    
Maximum Humidity 100    
Minimum Humidity 63    
Precipitation  
Precipitation 0.14 in - - ()
Sea Level Pressure  
Sea Level Pressure 29.79 in    
Wind  
Wind Speed 8 mph (East)    
Max Wind Speed 21 mph    
Max Gust Speed 30 mph    
Visibility 7 miles    
Events Rain , Thunderstorm    
Averages and records for this station are not official NWS values.
T = Trace of Precipitation, MM = Missing Value Source: NWS Daily Summary

Daily Weather History Graph

Daily Weather History Graph

Search for Another Location

Airport:

Trip Planner

Search our weather history database for the weather conditions in past years. The results will help you decide how hot, cold, wet, or windy it might be!

Date:

Astronomy

Feb. 13, 2013 Rise Set
Actual Time 7:08 AM EST 6:04 PM EST
Civil Twilight 6:42 AM EST 6:29 PM EST
Nautical Twilight 6:13 AM EST 6:59 PM EST
Astronomical Twilight 5:44 AM EST 7:28 PM EST
Moon 8:49 AM EST (2/13) 9:51 PM EST (2/13)
Length of Visible Light 11h 47m
Length of Day
10h 56m
Waxing Crescent, 13% of the Moon is Illuminated
Feb 13
Waxing Crescent
Feb 17
First Quarter
Feb 25
Full
Mar 4
Last Quarter
Mar 11
New

Hourly Weather History & Observations

Time (EST) Temp. Dew Point Humidity Pressure Visibility Wind Dir Wind Speed Gust Speed Precip Events Conditions
12:31 AM 48.2 °F 44.6 °F 87% 29.89 in 10.0 mi NE 6.9 mph - N/A   Overcast
12:41 AM 48.2 °F 44.6 °F 87% 29.88 in 10.0 mi NE 8.1 mph - N/A Rain Light Rain
12:58 AM 48.6 °F 44.6 °F 86% 29.88 in 10.0 mi ENE 6.9 mph - 0.02 in Rain Light Rain
1:02 AM 48.2 °F 44.6 °F 87% 29.88 in 9.0 mi NE 4.6 mph - N/A Rain Light Rain
1:07 AM 48.2 °F 44.6 °F 87% 29.89 in 7.0 mi NE 5.8 mph - N/A Rain Light Rain
1:12 AM 48.2 °F 44.6 °F 87% 29.89 in 7.0 mi NE 5.8 mph - N/A Rain Light Rain
1:17 AM 48.2 °F 44.6 °F 87% 29.88 in 6.0 mi East 9.2 mph - N/A Rain Light Rain
1:22 AM 48.2 °F 44.6 °F 87% 29.87 in 7.0 mi East 9.2 mph - N/A Rain Light Rain
1:47 AM 48.2 °F 44.6 °F 87% 29.86 in 9.0 mi East 9.2 mph - N/A Rain Light Rain
1:57 AM 48.2 °F 44.6 °F 87% 29.85 in 10.0 mi East 9.2 mph - N/A Rain Light Rain
1:58 AM 48.2 °F 44.6 °F 87% 29.86 in 9.0 mi East 9.2 mph - 0.03 in Rain Light Rain
2:03 AM 48.2 °F 44.6 °F 87% 29.84 in 9.0 mi East 10.4 mph - N/A Rain Light Rain
2:05 AM 48.2 °F 44.6 °F 87% 29.84 in 9.0 mi East 8.1 mph - N/A Rain , Thunderstorm Thunderstorms and Rain
2:10 AM 48.2 °F 44.6 °F 87% 29.85 in 10.0 mi ENE 8.1 mph - N/A Rain , Thunderstorm Light Thunderstorms and Rain
2:20 AM 48.2 °F 44.6 °F 87% 29.84 in 8.0 mi ENE 6.9 mph - N/A Rain Rain
2:25 AM 48.2 °F 44.6 °F 87% 29.85 in 8.0 mi NE 5.8 mph - N/A Rain Light Rain
2:30 AM 48.2 °F 44.6 °F 87% 29.85 in 10.0 mi ENE 6.9 mph - N/A Rain Light Rain
2:40 AM 48.2 °F 44.6 °F 87% 29.83 in 10.0 mi ENE 8.1 mph - N/A   Light Drizzle
2:50 AM 48.2 °F 44.6 °F 87% 29.82 in 9.0 mi East 8.1 mph - N/A Rain Light Rain
2:58 AM 48.2 °F 44.6 °F 87% 29.80 in 6.0 mi ENE 10.4 mph - 0.04 in   Light Drizzle
3:03 AM 48.2 °F 44.6 °F 87% 29.80 in 5.0 mi ENE 8.1 mph - N/A   Light Drizzle
3:08 AM 48.2 °F 44.6 °F 87% 29.81 in 5.0 mi East 8.1 mph - N/A   Light Drizzle
3:13 AM 48.2 °F 44.6 °F 87% 29.80 in 5.0 mi East 6.9 mph - N/A   Light Drizzle
3:15 AM 48.2 °F 44.6 °F 87% 29.80 in 6.0 mi East 6.9 mph - N/A   Overcast
3:20 AM 48.2 °F 44.6 °F 87% 29.80 in 8.0 mi East 6.9 mph - N/A   Overcast
3:25 AM 48.2 °F 46.4 °F 93% 29.80 in 10.0 mi East 8.1 mph - N/A   Overcast
3:40 AM 48.2 °F 46.4 °F 93% 29.79 in 9.0 mi East 6.9 mph - N/A   Overcast
3:50 AM 48.2 °F 46.4 °F 93% 29.79 in 9.0 mi ENE 6.9 mph - N/A   Overcast
3:58 AM 48.0 °F 45.5 °F 91% 29.81 in 7.0 mi ENE 5.8 mph - 0.00 in   Overcast
4:03 AM 48.2 °F 46.4 °F 93% 29.79 in 6.0 mi ENE 5.8 mph - N/A   Overcast
4:08 AM 48.2 °F 46.4 °F 93% 29.80 in 6.0 mi ENE 4.6 mph - N/A   Light Drizzle
4:13 AM 48.2 °F 46.4 °F 93% 29.81 in 7.0 mi NE 3.5 mph - N/A   Light Drizzle
4:23 AM 48.2 °F 46.4 °F 93% 29.80 in 10.0 mi NNE 5.8 mph - N/A   Overcast
4:58 AM 48.2 °F 45.7 °F 91% 29.81 in 10.0 mi North 6.9 mph - 0.00 in   Overcast
5:28 AM 48.2 °F 46.4 °F 93% 29.79 in 10.0 mi NE 8.1 mph - N/A   Overcast
5:33 AM 48.2 °F 46.4 °F 93% 29.78 in 9.0 mi NE 8.1 mph - N/A   Overcast
5:38 AM 48.2 °F 46.4 °F 93% 29.78 in 7.0 mi ENE 9.2 mph - N/A   Overcast
5:58 AM 47.8 °F 45.5 °F 92% 29.79 in 6.0 mi ENE 4.6 mph - N/A   Overcast
6:23 AM 48.2 °F 44.6 °F 87% 29.78 in 6.0 mi NE 6.9 mph - N/A   Overcast
6:38 AM 48.2 °F 44.6 °F 87% 29.78 in 5.0 mi NE 5.8 mph - N/A   Overcast
6:58 AM 47.3 °F 45.1 °F 92% 29.77 in 4.0 mi ENE 5.8 mph - N/A   Overcast
7:08 AM 48.2 °F 44.6 °F 87% 29.77 in 4.0 mi ENE 5.8 mph - N/A   Overcast
7:13 AM 48.2 °F 44.6 °F 87% 29.76 in 3.0 mi ENE 6.9 mph - N/A   Overcast
7:18 AM 48.2 °F 44.6 °F 87% 29.77 in 2.5 mi ENE 6.9 mph - N/A   Overcast
7:23 AM 48.2 °F 44.6 °F 87% 29.75 in 3.0 mi ENE 8.1 mph - N/A   Overcast
7:49 AM 48.2 °F 46.4 °F 93% 29.79 in 2.0 mi NE 4.6 mph - N/A   Overcast
7:58 AM 47.5 °F 45.5 °F 93% 29.80 in 2.0 mi ENE 5.8 mph - N/A   Overcast
8:22 AM 48.2 °F 46.4 °F 93% 29.77 in 1.8 mi East 8.1 mph - N/A   Light Drizzle
8:58 AM 48.2 °F 46.4 °F 93% 29.81 in 1.2 mi East 3.5 mph - 0.00 in   Overcast
8:59 AM 48.2 °F 46.4 °F 93% 29.80 in 1.2 mi East 3.5 mph - N/A   Light Drizzle
9:17 AM 48.2 °F 46.4 °F 93% 29.78 in 1.0 mi East 4.6 mph - N/A   Overcast
9:36 AM 48.2 °F 46.4 °F 93% 29.75 in 0.8 mi ESE 9.2 mph - N/A   Overcast
9:42 AM 48.2 °F 48.2 °F 100% 29.74 in 2.0 mi ESE 5.8 mph - N/A   Overcast
9:49 AM 48.2 °F 48.2 °F 100% 29.74 in 0.8 mi SE 9.2 mph - N/A   Overcast
9:58 AM 48.9 °F 47.8 °F 96% 29.77 in 0.9 mi SE 4.6 mph - 0.00 in   Overcast
10:37 AM 50.0 °F 50.0 °F 100% 29.75 in 0.8 mi SSE 4.6 mph - N/A   Overcast
10:58 AM 50.0 °F 50.0 °F 100% 29.75 in 0.6 mi South 4.6 mph - N/A   Overcast
11:28 AM 51.8 °F 50.0 °F 94% 29.76 in 1.0 mi SW 5.8 mph - N/A   Overcast
11:58 AM 52.3 °F 51.8 °F 98% 29.74 in 1.2 mi SSW 8.1 mph - N/A   Overcast
12:18 PM 53.6 °F 53.6 °F 100% 29.72 in 2.0 mi SW 6.9 mph - N/A   Overcast
12:28 PM 53.6 °F 53.6 °F 100% 29.69 in 3.0 mi South 6.9 mph - N/A   Overcast
12:41 PM 53.6 °F 53.6 °F 100% 29.69 in 3.0 mi South 4.6 mph - N/A   Overcast
12:58 PM 54.3 °F 54.1 °F 99% 29.72 in 5.0 mi WSW 6.9 mph - N/A   Overcast
1:36 PM 55.4 °F 55.4 °F 100% 29.70 in 7.0 mi WSW 9.2 mph - N/A   Overcast
1:43 PM 55.4 °F 55.4 °F 100% 29.67 in 10.0 mi SW 9.2 mph - N/A   Overcast
1:49 PM 55.4 °F 55.4 °F 100% 29.69 in 7.0 mi SW 11.5 mph - N/A   Overcast
1:58 PM 56.5 °F 55.0 °F 95% 29.71 in 10.0 mi SW 11.5 mph - N/A   Overcast
2:08 PM 57.2 °F 53.6 °F 88% 29.68 in 10.0 mi WSW 10.4 mph - N/A   Overcast
2:48 PM 59.0 °F 51.8 °F 77% 29.71 in 10.0 mi WSW 16.1 mph - N/A   Mostly Cloudy
2:58 PM 59.0 °F 50.0 °F 72% 29.69 in 10.0 mi WSW 18.4 mph 29.9 mph N/A   Mostly Cloudy
3:03 PM 59.0 °F 50.0 °F 72% 29.69 in 10.0 mi WSW 20.7 mph 29.9 mph N/A   Mostly Cloudy
3:30 PM 59.0 °F 46.4 °F 63% 29.70 in 10.0 mi West 13.8 mph 27.6 mph N/A Rain Light Rain
3:58 PM 57.2 °F 46.8 °F 68% 29.72 in 10.0 mi West 19.6 mph 24.2 mph 0.00 in   Overcast
4:10 PM 55.4 °F 46.4 °F 72% 29.72 in 10.0 mi West 16.1 mph - N/A Rain Light Rain
4:58 PM 52.7 °F 45.0 °F 75% 29.75 in 6.0 mi WSW 16.1 mph 20.7 mph 0.02 in Rain Light Rain
5:20 PM 51.8 °F 46.4 °F 82% 29.73 in 10.0 mi WSW 6.9 mph - N/A   Mostly Cloudy
5:21 PM 51.8 °F 46.4 °F 82% 29.74 in 10.0 mi WSW 6.9 mph - N/A   Overcast
5:54 PM 51.8 °F 46.4 °F 82% 29.75 in 10.0 mi SSW 9.2 mph - N/A   Clear
5:55 PM 51.4 °F 46.4 °F 83% 29.75 in 10.0 mi SSW 9.2 mph - 0.03 in   Overcast
6:55 PM 51.3 °F 46.8 °F 85% 29.77 in 10.0 mi SW 10.4 mph - N/A   Partly Cloudy
7:58 PM 51.1 °F 46.6 °F 85% 29.78 in 10.0 mi SW 10.4 mph - N/A   Clear
8:32 PM 51.8 °F 46.4 °F 82% 29.79 in 10.0 mi SW 13.8 mph - N/A   Mostly Cloudy
8:37 PM 51.8 °F 46.4 °F 82% 29.78 in 10.0 mi WSW 10.4 mph - N/A   Mostly Cloudy
8:42 PM 51.8 °F 46.4 °F 82% 29.79 in 10.0 mi SW 9.2 mph - N/A   Mostly Cloudy
8:47 PM 51.8 °F 46.4 °F 82% 29.80 in 10.0 mi WSW 10.4 mph - N/A   Overcast
8:58 PM 51.8 °F 46.2 °F 81% 29.81 in 10.0 mi WSW 9.2 mph - N/A   Overcast
9:03 PM 51.8 °F 46.4 °F 82% 29.80 in 10.0 mi SW 11.5 mph - N/A   Overcast
9:08 PM 51.8 °F 46.4 °F 82% 29.80 in 10.0 mi WSW 13.8 mph - N/A   Overcast
9:13 PM 51.8 °F 46.4 °F 82% 29.81 in 10.0 mi WSW 12.7 mph - N/A   Mostly Cloudy
9:18 PM 51.8 °F 46.4 °F 82% 29.81 in 10.0 mi West 8.1 mph - N/A   Overcast
9:28 PM 51.8 °F 46.4 °F 82% 29.81 in 10.0 mi WSW 10.4 mph - N/A   Scattered Clouds
9:58 PM 51.3 °F 45.3 °F 80% 29.84 in 10.0 mi West 8.1 mph - N/A   Partly Cloudy
10:58 PM 50.2 °F 42.3 °F 74% 29.85 in 10.0 mi West 9.2 mph - N/A   Scattered Clouds